Date,TemperatureHighF,TemperatureAvgF,TemperatureLowF,DewpointHighF,DewpointAvgF,DewpointLowF,HumidityHigh,HumidityAvg,HumidityLow,PressureMaxIn,PressureMinIn,WindSpeedMaxMPH,WindSpeedAvgMPH,GustSpeedMaxMPH,PrecipitationSumIn
2013-1-1,33.7,25.2,14.6,28.1,16.6,7.1,80,70,58,30.10,29.93,0,0,0,0.00
2013-1-2,34.6,24.5,18.9,21.2,16.2,13.1,79,71,56,30.23,30.05,0,0,0,0.00
2013-1-3,32.4,26.2,18.9,26.3,20.7,12.8,83,79,71,30.22,30.01,0,0,0,0.00
2013-1-4,36.5,30.8,26.6,28.4,24.4,20.3,83,77,71,30.11,29.93,0,0,0,0.00
2013-1-5,39.6,32.5,29.7,30.4,26.1,23.9,81,77,67,30.34,30.09,0,0,0,0.02
2013-1-6,37.6,35.8,32.8,33.9,32.1,27.3,89,86,78,30.17,29.93,0,0,0,0.05
2013-1-7,35.6,31.0,25.7,28.7,25.2,20.7,86,79,67,30.45,30.17,0,0,0,0.00
2013-1-8,41.8,34.0,28.4,33.4,28.6,25.0,89,81,71,30.36,30.19,0,0,0,0.00
2013-1-9,45.7,38.9,29.0,37.3,31.9,24.8,86,76,65,30.41,30.01,0,0,0,0.00
2013-1-10,46.3,37.9,33.5,32.4,29.2,26.8,82,71,55,30.65,30.42,0,0,0,0.00
2013-1-11,51.1,42.7,34.9,44.6,37.1,28.1,88,81,73,30.42,29.91,0,0,0,0.03
2013-1-12,59.8,51.1,45.2,51.5,46.9,42.8,92,86,73,30.05,29.98,0,0,0,0.00
2013-1-13,63.4,53.4,46.3,56.8,49.9,43.7,94,88,76,30.01,29.79,0,0,0,0.67
2013-1-14,46.3,34.3,26.6,43.9,28.2,21.0,92,78,68,30.44,29.82,0,0,0,0.08
2013-1-15,37.1,30.5,26.3,25.9,22.8,19.7,81,73,57,30.45,30.21,0,0,0,0.00
2013-1-16,43.2,33.8,28.3,33.0,26.8,22.8,83,76,65,30.22,29.83,0,0,0,0.00
2013-1-17,35.6,25.8,16.6,28.4,19.1,13.0,89,76,69,30.22,29.90,0,0,0,0.00
2013-1-18,34.0,23.9,15.7,24.1,15.4,8.7,87,71,53,30.48,30.04,0,0,0,0.00
2013-1-19,47.0,41.7,33.5,33.0,29.5,23.9,70,62,51,30.05,29.61,0,0,0,0.00
2013-1-20,47.2,30.1,19.1,36.2,20.1,10.5,82,67,52,30.14,29.52,0,0,0,0.00
2013-1-21,27.0,20.0,12.6,15.6,10.5,2.3,76,66,52,30.12,29.90,0,0,0,0.00
2013-1-22,16.2,10.9,7.2,2.3,-0.1,-2.7,68,61,51,30.22,29.95,0,0,0,0.00
2013-1-23,23.0,13.6,6.1,9.2,3.2,-1.5,79,63,49,30.27,30.13,0,0,0,0.00
2013-1-24,18.7,13.0,5.0,11.8,5.4,-1.9,86,72,58,30.57,30.13,0,0,0,0.00
2013-1-25,26.6,14.6,5.4,15.1,7.5,-0.9,83,73,57,30.54,30.12,0,0,0,0.00
2013-1-26,36.7,20.0,9.2,22.9,12.7,4.4,85,74,52,30.44,30.13,0,0,0,0.00
2013-1-27,36.9,23.6,10.4,24.4,16.3,5.2,86,74,57,30.60,30.37,0,0,0,0.05
2013-1-28,40.9,34.8,24.8,39.5,31.2,17.4,95,87,73,30.37,29.88,0,0,0,0.13
2013-1-29,53.1,41.4,35.3,51.7,39.5,32.8,95,93,90,30.09,29.74,0,0,0,0.81
2013-1-30,61.2,55.9,51.5,54.8,50.9,48.0,95,84,72,29.74,29.10,0,0,0,0.45
2013-1-31,51.1,30.2,22.1,48.0,22.6,13.1,89,74,51,29.77,29.10,0,0,0,0.09
2013-2-1,29.0,21.4,16.7,19.5,14.0,8.3,85,73,57,30.23,29.77,0,0,0,0.00
2013-2-2,28.1,21.2,15.7,20.3,14.8,6.9,85,76,68,30.22,30.01,0,0,0,0.00
2013-2-3,34.7,21.4,9.7,24.5,14.6,5.3,85,76,54,30.01,29.84,0,0,0,0.00
2013-2-4,28.3,18.3,10.4,15.0,9.9,4.0,80,70,53,30.01,29.91,0,0,0,0.00
2013-2-5,36.7,24.1,13.3,23.6,17.0,7.8,88,75,54,29.99,29.88,0,0,0,0.02
2013-2-6,32.8,25.3,14.9,23.5,15.7,7.1,84,68,47,30.41,29.92,0,0,0,0.01
2013-2-7,31.3,25.1,14.8,22.5,17.2,8.4,82,72,63,30.42,30.10,0,0,0,0.00
2013-2-8,32.8,26.1,18.4,30.7,23.2,15.8,93,89,76,30.19,29.82,0,0,0,0.00
2013-2-9,31.9,20.3,10.4,25.0,15.9,6.2,91,83,71,30.45,30.19,0,0,0,0.00
2013-2-10,38.9,23.7,6.1,27.6,16.1,2.5,86,74,39,30.44,29.96,0,0,0,0.11
2013-2-11,50.4,39.0,34.2,41.9,32.3,26.7,91,77,62,29.97,29.63,0,0,0,0.32
2013-2-12,37.8,33.9,31.7,29.3,27.2,25.0,81,76,66,30.02,29.77,0,0,0,0.00
2013-2-13,45.4,32.9,23.2,29.4,24.1,17.8,84,71,48,29.95,29.79,0,0,0,0.00
2013-2-14,23.8,22.7,20.9,19.4,18.3,16.5,84,83,82,29.89,29.86,0,0,0,0.00
2013-2-18,38.2,29.6,14.8,23.6,18.0,9.5,79,62,48,30.30,29.90,0,0,0,0.05
2013-2-19,42.3,34.1,24.8,37.3,27.1,18.6,90,76,65,29.90,29.60,0,0,0,0.40
2013-2-20,26.1,22.6,20.0,18.6,15.2,12.7,86,73,59,30.14,29.81,0,0,0,0.00
2013-2-21,28.6,22.6,16.4,16.9,14.2,9.5,80,70,58,30.45,30.12,0,0,0,0.00
2013-2-22,35.1,28.5,21.6,30.8,23.1,16.3,85,80,70,30.43,30.01,0,0,0,0.01
2013-2-23,41.2,35.0,27.9,33.9,28.9,22.8,85,78,67,30.02,29.92,0,0,0,0.00
2013-2-24,36.7,32.2,29.3,27.7,25.8,24.2,83,77,67,30.14,29.91,0,0,0,0.00
2013-2-25,40.7,34.6,28.4,31.8,27.8,24.0,83,76,63,30.27,30.14,0,0,0,0.00
2013-2-26,44.1,35.2,26.5,32.9,27.7,22.5,92,75,53,30.27,29.76,0,0,0,0.79
2013-2-27,35.3,35.0,34.9,32.9,32.3,32.0,91,90,89,29.77,29.72,0,0,0,0.10
2013-3-5,42.1,30.8,27.4,28.6,23.8,22.0,84,75,50,30.12,30.00,0,0,0,0.02
2013-3-6,41.2,34.8,27.5,33.7,29.7,23.1,91,82,71,30.21,29.99,0,0,0,0.00
2013-3-7,41.8,35.2,29.3,33.1,30.4,26.3,92,83,65,30.35,30.19,0,0,0,0.03
2013-3-8,44.5,35.7,28.4,30.7,27.1,22.6,93,72,49,30.46,30.34,0,0,0,0.02
2013-3-9,50.9,36.0,25.2,37.8,29.7,21.3,89,79,53,30.47,30.23,0,0,0,0.00
2013-3-10,68.0,51.4,35.8,39.2,32.9,28.4,79,52,33,30.23,29.99,0,0,0,0.00
2013-3-11,67.0,54.6,46.8,42.2,35.1,31.6,84,49,33,30.00,29.67,0,0,0,0.13
2013-3-12,46.8,39.6,34.7,42.9,33.3,28.1,87,78,68,29.95,29.74,0,0,0,0.02
2013-3-13,43.6,32.8,23.4,34.4,26.0,13.7,85,76,61,30.04,29.88,0,0,0,0.09
2013-3-14,36.4,28.0,22.0,18.0,14.5,10.0,78,58,38,30.14,30.04,0,0,0,0.01
2013-3-15,41.4,32.9,25.7,32.0,24.9,17.1,84,72,56,30.10,29.81,0,0,0,0.00
2013-3-16,30.6,27.5,21.6,23.0,19.0,15.0,80,70,62,30.04,29.89,0,0,0,0.00
2013-3-17,32.4,26.4,20.2,23.6,16.8,10.0,84,68,46,30.37,30.03,0,0,0,0.00
2013-3-18,36.4,27.8,19.4,31.3,19.6,10.7,88,72,49,30.37,29.70,0,0,0,0.00
2013-3-19,36.4,33.1,25.6,33.7,26.3,19.5,90,76,56,29.89,29.68,0,0,0,0.08
2013-3-20,38.9,29.5,23.9,24.8,20.1,15.4,86,69,48,29.90,29.85,0,0,0,0.01
2013-3-21,35.5,27.5,20.5,26.6,20.0,15.3,86,74,52,29.88,29.76,0,0,0,0.00
2013-3-22,39.2,31.3,25.9,27.8,24.7,22.3,87,77,61,30.00,29.81,0,0,0,0.06
2013-3-23,44.8,35.3,28.3,29.2,25.2,22.3,83,68,47,30.09,29.98,0,0,0,0.02
2013-3-24,39.1,32.4,24.5,28.3,23.3,20.3,87,70,53,30.09,29.77,0,0,0,0.00
2013-3-25,42.3,36.2,32.4,32.0,27.8,25.0,83,72,57,29.81,29.67,0,0,0,0.00
2013-3-26,55.3,40.7,32.2,32.5,28.6,24.8,83,64,36,30.01,29.81,0,0,0,0.00
2013-3-27,49.3,38.8,31.9,34.3,30.5,24.4,87,73,54,30.12,29.99,0,0,0,0.04
2013-3-28,47.9,39.4,33.5,37.4,31.9,27.3,87,76,48,30.27,30.12,0,0,0,0.02
2013-3-29,57.2,43.1,31.5,35.3,31.7,25.0,84,66,39,30.27,30.19,0,0,0,0.00
2013-3-30,58.0,40.8,26.8,37.5,27.5,21.7,88,63,34,30.27,30.07,0,0,0,0.00
2013-3-31,63.5,46.3,36.2,41.3,32.1,22.9,87,60,34,30.07,29.65,0,0,0,0.01
2013-4-1,43.2,36.1,27.2,39.7,25.3,16.8,90,66,43,30.03,29.64,0,0,0,0.04
2013-4-2,37.4,30.6,25.4,24.3,18.4,15.0,71,61,43,30.18,30.02,0,0,0,0.00
2013-4-3,40.7,32.4,26.3,20.3,17.9,15.1,67,56,38,30.45,30.18,0,0,0,0.00
2013-4-4,54.2,37.8,23.8,26.7,18.7,12.2,78,50,20,30.41,29.96,0,0,0,0.00
2013-4-5,46.1,36.8,29.7,29.3,23.1,17.1,72,58,44,30.23,29.94,0,0,0,0.00
2013-4-6,51.7,37.0,22.0,29.2,22.0,14.1,76,56,32,30.36,30.03,0,0,0,0.00
2013-4-7,68.2,53.7,40.9,46.8,34.9,23.4,71,50,37,30.10,29.75,0,0,0,0.00
2013-4-8,61.0,45.8,32.4,46.4,36.4,26.2,90,71,45,30.17,29.81,0,0,0,0.23
2013-4-9,63.7,50.4,45.0,48.3,44.2,40.5,94,80,55,30.18,29.84,0,0,0,0.72
2013-4-10,46.1,42.9,39.6,44.3,41.0,35.8,95,93,87,30.10,29.90,0,0,0,0.74
2013-4-11,40.3,35.1,32.8,36.5,31.7,28.8,93,88,74,30.17,29.94,0,0,0,0.47
2013-4-12,48.1,39.5,33.5,46.2,36.6,30.2,94,89,82,29.95,29.55,0,0,0,0.51
2013-4-13,47.2,41.5,38.7,38.8,35.9,33.5,87,81,67,29.99,29.82,0,0,0,0.00
2013-4-14,52.0,41.7,34.6,36.4,30.9,28.0,83,66,51,30.22,29.99,0,0,0,0.00
2013-4-15,72.4,54.7,37.8,49.8,40.9,29.0,74,61,42,30.19,30.03,0,0,0,0.00
2013-4-16,64.4,56.2,45.5,56.3,48.1,36.2,89,75,64,30.29,30.00,0,0,0,0.09
2013-4-17,57.2,46.3,33.5,40.1,34.2,29.5,88,64,43,30.41,30.24,0,0,0,0.00
2013-4-18,84.6,63.9,45.5,62.5,50.0,32.1,75,62,45,30.25,29.73,0,0,0,0.00
2013-4-19,72.2,56.7,41.8,60.5,47.0,31.5,83,70,62,29.81,29.41,0,0,0,0.07
2013-4-20,41.8,37.7,31.3,33.9,27.7,22.4,86,68,51,30.47,29.79,0,0,0,0.05
2013-4-21,45.4,36.0,25.4,30.6,23.3,17.5,81,61,46,30.72,30.47,0,0,0,0.00
2013-4-22,65.7,47.5,31.3,37.4,29.1,18.9,70,51,26,30.61,30.35,0,0,0,0.00
2013-4-23,71.1,53.0,37.8,44.2,35.1,26.8,70,52,30,30.35,29.95,0,0,0,0.00
2013-4-24,63.0,52.4,36.9,54.6,43.1,31.9,88,72,48,30.09,29.68,0,0,0,0.50
2013-4-25,58.7,44.7,32.4,41.1,34.8,28.7,91,71,39,30.37,30.09,0,0,0,0.08
2013-4-26,61.9,47.3,33.8,41.1,33.1,26.7,90,61,37,30.53,30.37,0,0,0,0.00
2013-4-27,74.9,54.9,36.5,44.8,35.8,25.0,67,50,26,30.47,30.25,0,0,0,0.00
2013-4-28,75.6,59.6,47.5,50.0,42.9,34.7,75,56,30,30.25,30.03,0,0,0,0.05
2013-4-29,66.2,58.1,51.7,54.8,50.7,46.3,86,77,65,30.08,29.99,0,0,0,0.09
2013-4-30,78.5,64.8,55.1,59.1,53.9,48.6,86,69,46,30.25,30.07,0,0,0,0.00
2013-5-1,79.9,65.3,57.2,60.1,50.9,42.0,74,61,41,30.37,30.25,0,0,0,0.00
2013-5-2,76.7,65.2,53.3,49.4,43.0,37.4,63,46,26,30.45,30.30,0,0,0,0.00
2013-5-3,80.3,66.2,52.9,51.8,45.5,39.7,63,48,29,30.34,30.23,0,0,0,0.00
2013-5-4,71.8,62.7,52.4,47.8,43.4,34.8,67,50,30,30.32,30.19,0,0,0,0.00
2013-5-5,74.5,63.1,49.0,51.1,45.1,40.6,76,53,34,30.26,30.13,0,0,0,0.00
2013-5-6,75.1,61.1,46.1,47.3,39.7,27.5,72,48,23,30.21,30.08,0,0,0,0.00
2013-5-7,77.0,65.1,48.8,56.7,49.3,37.4,78,57,44,30.18,30.07,0,0,0,0.00
2013-5-8,74.7,63.7,56.5,60.2,54.8,48.1,90,73,53,30.10,29.99,0,0,0,0.03
2013-5-9,78.8,63.5,55.4,63.5,56.0,48.6,92,78,51,30.02,29.94,0,0,0,0.56
2013-5-10,77.8,60.9,50.6,64.1,54.7,46.3,92,81,56,30.01,29.76,0,0,0,0.17
2013-5-11,59.6,52.5,46.1,57.2,47.6,41.9,92,84,64,29.83,29.72,0,0,0,0.08
2013-5-12,50.4,44.0,37.4,46.5,35.5,29.6,89,73,51,30.00,29.75,0,0,0,0.20
2013-5-13,55.1,42.9,33.7,39.5,32.6,28.0,85,68,50,30.19,30.00,0,0,0,0.00
2013-5-14,63.4,49.1,34.7,40.9,34.8,28.2,86,61,34,30.19,29.96,0,0,0,0.00
2013-5-15,80.3,63.2,49.7,61.8,48.3,40.1,82,60,35,29.96,29.59,0,0,0,0.01
2013-5-16,78.1,64.3,49.3,52.4,45.8,38.6,81,54,28,30.09,29.81,0,0,0,0.00
2013-5-17,67.0,55.6,42.5,48.1,41.2,34.5,84,60,33,30.28,30.09,0,0,0,0.00
2013-5-18,74.2,61.0,48.1,51.6,44.1,37.5,72,55,38,30.30,30.17,0,0,0,0.00
2013-5-19,85.1,68.7,54.5,64.9,56.1,43.3,81,65,45,30.18,30.02,0,0,0,0.00
2013-5-20,95.4,76.0,61.6,69.3,62.9,56.3,84,66,41,30.09,29.92,0,0,0,0.00
2013-5-21,90.0,74.6,62.6,72.1,63.4,56.7,87,70,43,30.00,29.81,0,0,0,0.05
2013-5-22,90.9,74.4,61.6,67.7,62.0,56.3,87,67,41,29.86,29.71,0,0,0,0.00
2013-5-23,77.8,63.2,43.2,64.3,56.3,41.0,92,79,57,30.00,29.76,0,0,0,0.49
2013-5-24,63.9,45.0,38.9,43.8,37.8,34.9,93,77,43,30.29,30.00,0,0,0,0.18
2013-5-25,64.6,50.6,38.2,45.0,37.8,33.7,86,63,42,30.33,30.25,0,0,0,0.00
2013-5-26,72.7,55.1,41.6,47.0,37.6,31.9,80,54,25,30.30,30.23,0,0,0,0.00
2013-5-27,75.6,59.3,40.5,49.1,41.0,34.0,85,54,29,30.33,30.18,0,0,0,0.00
2013-5-28,65.5,58.3,51.1,62.0,52.8,38.6,94,83,55,30.20,29.96,0,0,0,1.25
2013-5-29,86.8,70.8,62.6,68.0,62.9,57.3,94,77,53,30.08,29.93,0,0,0,0.52
2013-5-30,90.2,75.4,61.4,70.7,63.9,56.3,87,69,48,30.17,30.08,0,0,0,0.00
2013-5-31,90.5,78.1,66.8,69.7,64.9,60.7,87,66,46,30.12,29.99,0,0,0,0.04
2013-6-1,87.1,73.7,65.5,71.1,65.9,61.8,91,78,56,30.01,29.84,0,0,0,0.81
2013-6-2,76.7,67.9,54.4,65.7,61.1,47.6,94,80,61,29.97,29.74,0,0,0,1.01
2013-6-3,70.4,57.6,47.5,52.1,46.3,41.9,83,67,46,30.10,29.97,0,0,0,0.00
2013-6-4,82.8,60.1,47.0,54.1,44.8,39.7,81,59,34,30.24,30.09,0,0,0,0.00
2013-6-5,69.8,59.3,48.6,53.1,45.0,39.1,85,61,41,30.27,30.12,0,0,0,0.00
2013-6-6,60.1,55.8,50.4,58.4,51.6,40.6,94,87,54,30.13,29.88,0,0,0,0.97
2013-6-7,59.2,56.3,52.2,56.6,54.4,50.5,96,93,90,29.93,29.87,0,0,0,0.04
2013-6-8,68.8,60.5,56.2,61.6,56.5,52.0,95,87,70,30.14,29.89,0,0,0,0.06
2013-6-9,79.6,65.6,52.7,62.7,56.0,49.8,92,73,45,30.25,30.13,0,0,0,0.00
2013-6-10,72.7,65.9,62.8,67.6,61.4,55.6,94,85,75,30.15,29.75,0,0,0,0.91
2013-6-11,75.6,66.7,59.6,65.2,61.1,56.0,94,83,62,29.92,29.72,1,0,1,0.06
2013-6-12,81.0,68.8,55.3,64.4,57.7,52.0,91,69,46,29.99,29.81,0,0,0,0.03
2013-6-13,67.1,61.8,57.2,60.9,58.0,54.6,95,87,73,29.86,29.58,0,0,0,0.69
2013-6-14,86.4,65.9,53.6,65.6,57.5,51.0,93,76,47,30.06,29.85,2,0,2,0.01
2013-6-15,77.6,66.1,51.1,59.6,52.7,47.3,88,64,39,30.13,30.00,0,0,0,0.00
2013-6-16,81.9,68.1,61.6,67.5,60.6,54.9,91,78,55,30.01,29.77,0,0,0,0.13
2013-6-17,85.0,72.1,60.1,67.7,60.8,56.0,91,69,46,29.99,29.87,0,0,0,0.00
2013-6-18,71.5,63.0,56.3,56.7,52.2,47.0,89,69,45,30.09,29.95,0,0,0,0.00
2013-6-19,73.1,61.1,52.4,51.4,47.0,41.0,87,62,37,30.25,30.09,0,0,0,0.00
2013-6-20,78.8,65.0,47.9,56.1,48.9,42.3,85,58,38,30.31,30.24,1,0,1,0.00
2013-6-21,83.9,70.3,52.2,61.0,53.1,46.9,85,57,32,30.32,30.22,0,0,0,0.00
2013-6-22,86.6,75.9,61.9,69.6,62.9,49.6,78,65,54,30.22,30.06,0,0,0,0.05
2013-6-23,92.5,79.5,68.0,72.5,67.0,62.7,89,68,38,30.13,30.04,0,0,0,0.06
2013-6-24,88.9,78.6,70.2,71.7,66.7,62.6,83,68,50,30.12,29.99,0,0,0,0.00
2013-6-25,84.1,74.7,69.3,71.6,66.4,62.0,85,76,60,30.01,29.86,0,0,0,0.00
2013-6-26,85.7,75.2,67.1,72.3,66.4,61.8,91,75,53,29.90,29.85,0,0,0,0.00
2013-6-27,77.8,70.5,65.0,70.9,65.2,60.6,93,83,67,29.87,29.70,1,0,1,0.75
2013-6-28,72.7,66.4,61.9,68.3,63.7,60.0,94,91,84,29.71,29.56,1,0,1,1.66
2013-6-29,84.1,68.7,61.4,67.2,62.3,58.1,94,81,55,29.76,29.55,0,0,0,0.03
2013-6-30,77.4,68.6,60.5,67.1,61.0,57.2,91,77,58,29.99,29.76,0,0,0,0.00
2013-7-1,69.7,65.3,60.3,62.5,59.8,56.0,89,82,73,30.13,29.99,0,0,0,0.00
2013-7-2,72.7,65.4,58.9,66.1,60.7,55.6,90,85,77,30.15,30.07,0,0,0,0.00
2013-7-3,87.8,73.8,63.4,75.4,68.3,60.8,93,84,63,30.20,30.13,0,0,0,0.53
2013-7-4,86.2,74.8,69.5,71.7,68.3,66.2,91,81,60,30.24,30.16,0,0,0,0.07
2013-7-5,85.5,76.0,69.8,73.5,68.9,65.4,90,79,60,30.19,30.11,0,0,0,0.03
2013-7-6,88.9,77.2,67.1,72.7,68.4,63.7,90,76,55,30.20,30.08,0,0,0,0.00
2013-7-7,83.7,75.5,70.2,71.7,68.2,65.7,92,79,61,30.12,30.00,2,0,2,0.09
2013-7-8,88.4,76.6,69.7,73.4,68.7,65.7,90,78,58,30.11,30.04,1,0,1,0.00
2013-7-9,83.5,74.8,70.2,73.5,69.2,66.5,91,83,69,30.10,29.95,0,0,0,0.04
2013-7-10,88.6,76.8,70.2,75.7,69.9,60.7,91,80,64,29.96,29.74,0,0,0,0.00
2013-7-11,80.5,71.3,61.2,63.8,59.4,54.8,82,67,51,30.08,29.91,0,0,0,0.00
2013-7-12,74.9,68.9,60.1,66.9,62.3,56.6,90,80,69,30.23,30.07,0,0,0,0.01
2013-7-13,83.9,72.6,60.1,69.9,64.5,56.9,91,77,55,30.30,30.21,0,0,0,0.00
2013-7-14,89.3,78.8,66.8,76.8,70.2,63.7,91,76,60,30.35,30.29,0,0,0,0.00
2013-7-15,93.6,82.1,72.9,76.6,69.7,60.5,88,68,40,30.36,30.29,0,0,0,0.00
2013-7-16,94.7,82.6,71.5,76.5,70.1,63.2,90,68,46,30.35,30.27,0,0,0,0.00
2013-7-17,94.7,84.9,75.8,79.8,75.0,69.9,90,73,52,30.29,30.15,0,0,0,0.00
2013-7-18,92.0,82.6,74.5,79.7,74.6,70.9,89,77,61,30.17,30.01,0,0,0,0.21
2013-7-19,92.0,83.0,69.1,77.1,72.9,65.1,90,73,54,30.01,29.77,0,0,0,3.26
2013-7-27,70.6,68.4,66.2,64.8,64.0,63.2,91,86,81,29.90,29.84,0,0,0,0.08
2013-7-28,77.2,68.8,62.1,64.2,58.0,51.9,91,71,47,29.99,29.83,0,0,0,0.00
2013-7-29,73.1,64.9,58.0,60.7,56.4,52.9,89,75,57,30.19,30.01,0,0,0,0.11
2013-7-30,79.2,67.7,56.9,62.5,57.6,52.0,87,71,50,30.25,30.19,0,0,0,0.00
2013-7-31,83.2,69.2,58.7,65.2,60.5,54.8,89,75,45,30.20,29.97,0,0,0,0.00
2013-8-1,81.9,70.8,64.4,67.6,63.2,58.7,91,78,50,29.97,29.82,0,0,0,0.55
2013-8-2,80.5,69.2,57.6,66.1,59.5,53.7,91,73,47,29.94,29.87,0,0,0,0.35
2013-8-3,82.6,69.8,59.2,64.9,58.0,53.4,90,68,41,30.01,29.88,0,0,0,0.01
2013-8-4,75.8,65.3,56.9,60.1,54.5,49.1,87,69,51,30.13,30.00,0,0,0,0.00
2013-8-5,79.2,65.6,52.2,58.1,52.9,48.0,88,66,42,30.17,30.06,0,0,0,0.00
2013-8-6,83.3,68.6,56.5,61.3,56.6,49.5,87,68,40,30.10,30.01,0,0,0,0.00
2013-8-7,83.9,73.6,65.3,70.4,64.2,59.0,83,73,60,30.02,29.90,0,0,0,0.00
2013-8-8,84.4,74.4,66.4,73.5,67.9,62.7,90,81,68,30.02,29.93,0,0,0,0.55
2013-8-9,84.2,71.0,63.5,68.5,62.8,57.1,91,77,46,29.99,29.93,0,0,0,0.10
2013-8-10,77.4,67.6,58.3,60.2,55.2,50.9,85,66,47,30.15,29.99,0,0,0,0.00
2013-8-11,82.3,67.6,53.8,59.4,54.6,49.1,87,65,38,30.19,30.09,0,0,0,0.00
2013-8-12,78.5,69.7,59.9,65.7,60.5,54.3,86,73,56,30.11,29.91,0,0,0,0.04
2013-8-13,74.3,66.5,56.3,65.0,57.7,47.3,91,74,51,29.95,29.81,0,0,0,0.34
2013-8-14,74.7,62.3,54.0,54.9,50.8,47.3,86,68,42,30.15,29.93,0,0,0,0.00
2013-8-15,76.5,64.4,52.4,57.2,51.7,46.9,82,65,45,30.18,30.12,0,0,0,0.00
2013-8-16,59.0,55.3,53.5,50.6,49.3,48.3,85,80,73,30.19,30.17,0,0,0,0.00
2013-8-27,86.2,77.1,68.0,75.0,70.6,65.3,91,81,67,30.00,29.93,0,0,0,0.51
2013-8-28,81.7,73.1,68.8,73.5,68.4,65.3,91,85,72,30.03,29.91,0,0,0,0.24
2013-8-29,84.8,74.3,64.6,72.9,66.5,61.4,91,78,55,30.11,30.02,0,0,0,0.00
2013-8-30,76.0,63.1,0.0,69.9,58.5,0.0,92,85,81,30.07,29.80,37,4,37,0.01
2013-8-31,83.5,74.4,68.6,72.5,68.5,64.7,90,82,67,29.91,29.77,0,0,0,0.00
2013-9-1,81.4,72.9,66.6,72.5,67.9,64.0,93,85,71,29.90,29.81,0,0,0,0.05
2013-9-2,80.8,72.1,64.6,73.8,66.0,56.5,92,81,64,29.86,29.76,0,0,0,0.07
2013-9-3,70.4,63.7,58.9,60.5,56.9,53.2,84,78,70,30.01,29.84,0,0,0,0.00
2013-9-4,79.2,67.8,57.8,63.0,58.0,52.3,87,72,46,30.05,30.00,0,0,0,0.02
2013-9-5,66.8,59.6,50.2,60.5,49.8,42.2,89,72,46,30.29,30.04,0,0,0,0.00
2013-9-6,73.4,59.0,45.2,54.9,48.2,41.1,89,69,47,30.33,30.14,0,0,0,0.00
2013-9-7,65.9,62.4,58.0,62.2,57.6,50.2,90,84,74,30.14,29.92,0,0,0,0.27
2013-9-8,69.8,63.4,52.7,64.2,54.1,47.1,92,73,49,30.15,29.92,0,0,0,0.02
2013-9-9,74.9,64.3,47.9,63.6,56.2,43.9,87,76,60,30.17,29.99,0,0,0,0.00
2013-9-10,88.4,78.0,67.9,75.2,69.9,63.4,89,77,60,30.06,29.94,0,0,0,0.08
2013-9-11,88.7,79.5,72.4,74.4,71.0,66.5,87,76,58,30.09,29.95,0,0,0,0.11
2013-9-12,76.3,69.3,60.1,69.4,64.7,55.8,89,85,72,30.00,29.80,0,0,0,0.60
2013-9-13,60.3,54.2,50.4,56.3,49.9,44.3,89,85,79,30.09,29.83,0,0,0,0.07
2013-9-14,68.4,55.7,46.4,49.1,45.9,41.3,86,71,41,30.18,30.08,0,0,0,0.01
2013-9-15,69.5,58.4,48.6,58.2,51.4,44.3,87,78,61,30.19,30.09,0,0,0,0.09
2013-9-16,56.5,51.6,43.6,52.5,47.3,40.0,91,86,67,30.42,30.12,0,0,0,0.05
2013-9-17,66.1,51.7,38.3,48.8,43.2,35.6,91,75,47,30.52,30.31,0,0,0,0.01
2013-9-18,76.0,58.6,44.8,55.4,48.0,40.8,86,70,40,30.32,30.14,0,0,0,0.00
2013-9-19,79.2,63.5,50.9,63.3,55.1,47.0,88,75,55,30.17,30.05,0,0,0,0.00
2013-9-20,82.3,69.1,56.7,69.8,62.1,53.0,91,79,65,30.06,29.78,0,0,0,0.00
2013-9-21,73.1,63.2,53.5,66.6,59.7,50.1,91,88,77,29.81,29.67,0,0,0,1.93
2013-9-22,58.1,52.9,49.7,50.1,46.6,43.7,89,80,66,30.09,29.81,0,0,0,0.00
2013-9-23,64.3,52.8,45.0,47.8,44.2,41.2,88,74,51,30.21,30.09,0,0,0,0.00
2013-9-24,65.9,53.2,43.6,54.2,45.3,40.2,91,76,45,30.20,30.06,0,0,0,0.00
2013-9-25,70.0,54.9,42.7,57.4,46.7,39.1,90,76,47,30.07,30.00,0,0,0,0.00
2013-9-26,71.1,56.5,45.7,56.8,48.6,42.3,90,76,51,30.20,30.04,0,0,0,0.00
2013-9-27,68.9,59.1,51.5,57.9,52.3,48.1,91,79,65,30.31,30.20,0,0,0,0.00
2013-9-28,78.5,62.2,50.2,61.8,54.0,47.1,92,76,50,30.32,30.19,0,0,0,0.00
2013-9-29,76.9,62.4,49.7,60.1,53.6,45.6,88,74,53,30.19,30.04,0,0,0,0.00
2013-9-30,74.7,65.1,59.8,63.5,58.9,54.9,87,81,66,30.05,29.99,0,0,0,0.00
2013-10-1,75.6,66.7,57.4,63.9,60.3,54.2,91,80,65,30.07,29.96,0,0,0,0.00
2013-10-2,80.6,68.7,56.2,65.5,61.0,49.0,88,77,51,30.14,29.97,0,0,0,0.00
2013-10-3,71.8,62.8,48.6,57.4,51.4,44.3,90,68,45,30.17,30.05,0,0,0,0.07
2013-10-4,68.9,64.0,60.1,66.2,61.0,55.1,93,90,82,30.12,30.03,0,0,0,0.61
2013-10-5,64.3,60.6,58.0,61.0,57.9,55.4,93,91,88,30.15,30.04,0,0,0,0.40
2013-10-6,82.1,68.2,57.8,74.0,63.9,55.2,94,87,70,30.04,29.72,0,0,0,1.14
2013-10-7,74.2,60.2,50.8,65.1,52.9,44.7,90,77,58,30.10,29.69,0,0,0,0.45
2013-10-8,67.7,54.7,45.2,53.3,47.1,42.2,91,77,51,30.38,30.10,0,0,0,0.00
2013-10-9,70.4,55.0,43.2,54.1,46.6,39.6,90,75,39,30.43,30.30,0,0,0,0.00
2013-10-10,70.2,54.8,44.6,57.7,47.8,41.1,88,78,40,30.31,30.18,0,0,0,0.00
2013-10-11,70.7,56.2,46.4,57.9,48.5,42.9,92,77,48,30.22,30.15,0,0,0,0.00
2013-10-12,76.1,60.0,45.7,59.3,48.4,42.8,91,69,33,30.22,30.14,0,0,0,0.00
2013-10-13,67.7,61.8,57.8,61.2,53.5,43.1,90,75,58,30.32,30.18,0,0,0,0.38
2013-10-14,68.2,57.0,46.8,55.7,49.8,42.4,91,78,53,30.39,30.31,0,0,0,0.05
2013-10-15,71.5,56.9,45.5,59.3,50.8,42.2,90,81,62,30.33,29.96,0,0,0,0.00
2013-10-16,68.9,62.4,54.0,61.0,57.1,48.6,90,83,74,29.97,29.78,0,0,0,0.40
2013-10-17,64.3,55.7,50.8,55.1,50.0,46.3,89,82,68,29.92,29.73,0,0,0,0.46
2013-10-18,62.8,53.4,48.1,48.5,45.2,42.1,89,75,50,29.93,29.77,0,0,0,0.00
2013-10-19,59.6,51.6,43.2,51.1,46.3,39.6,88,82,68,29.91,29.70,0,0,0,0.22
2013-10-20,58.5,47.8,40.9,45.6,41.5,36.6,89,79,60,30.00,29.81,0,0,0,0.00
2013-10-21,64.8,55.0,45.9,49.0,44.9,41.9,88,70,48,29.99,29.81,0,0,0,0.14
2013-10-22,52.2,46.2,41.2,47.0,35.5,30.7,87,67,49,29.89,29.80,0,0,0,0.17
2013-10-23,49.9,42.6,37.1,41.9,35.6,30.9,84,76,65,29.86,29.75,0,0,0,0.05
2013-10-24,49.7,40.7,35.1,37.5,33.9,30.6,85,77,60,30.06,29.83,0,0,0,0.00
2013-10-25,52.0,43.4,37.6,42.6,36.5,33.3,88,77,62,30.23,30.06,0,0,0,0.00
2013-10-26,45.2,43.6,42.1,40.8,37.3,31.8,89,79,64,30.14,29.80,0,0,0,0.38
2013-10-27,50.8,42.4,37.1,41.5,36.4,33.1,89,80,68,30.07,29.85,0,0,0,0.00
2013-10-28,48.2,42.6,32.0,40.7,32.9,24.3,83,69,47,30.43,30.05,0,0,0,0.00
2013-10-29,50.2,39.9,31.7,34.7,30.6,24.2,80,70,48,30.50,30.32,0,0,0,0.00
2013-10-30,60.3,46.6,38.9,45.4,39.0,34.3,87,76,53,30.32,30.11,0,0,0,0.01
2013-10-31,66.6,56.3,44.3,60.0,51.6,38.8,92,84,73,30.11,29.38,0,0,0,0.83
2013-11-1,62.1,55.8,48.8,58.3,49.6,43.6,91,80,68,29.70,29.18,0,0,0,0.41
2013-11-2,50.2,44.4,38.2,45.2,40.6,33.9,92,87,82,30.07,29.65,0,0,0,0.17
2013-11-3,40.0,34.3,26.6,34.3,26.0,20.8,86,72,57,30.56,30.07,0,0,0,0.00
2013-11-4,42.7,34.4,25.4,30.8,24.6,21.2,86,69,49,30.66,30.45,0,0,0,0.00
2013-11-5,59.8,46.2,33.5,41.1,33.3,23.9,73,61,47,30.48,30.34,0,0,0,0.00
2013-11-6,64.4,55.7,47.7,54.7,45.3,33.7,89,69,57,30.34,29.83,0,0,0,0.29
2013-11-7,55.8,44.2,39.2,52.6,37.5,31.2,89,77,67,30.05,29.83,0,0,0,0.12
2013-11-8,45.0,39.7,35.3,35.1,31.9,30.3,85,74,63,30.27,30.01,0,0,0,0.00
2013-11-9,46.1,38.9,34.9,36.5,31.9,27.7,84,76,65,30.25,30.01,0,0,0,0.04
2013-11-19,40.0,33.6,25.9,27.2,23.7,20.3,82,67,56,30.49,30.27,0,0,0,0.00
2013-11-20,42.5,31.3,22.0,28.5,22.7,18.2,88,71,49,30.59,30.43,0,0,0,0.00
2013-11-21,47.0,39.5,29.0,36.5,29.8,19.5,85,69,58,30.43,30.26,0,0,0,0.13
2013-11-22,48.6,42.8,32.2,45.5,39.1,26.9,90,87,78,30.26,30.05,0,0,0,0.33
2013-11-23,34.9,29.1,19.8,27.6,21.2,9.8,83,72,58,30.27,30.07,0,0,0,0.00
2013-11-24,29.2,22.0,17.6,17.5,14.0,9.8,77,71,58,30.46,30.27,0,0,0,0.00
2013-11-25,36.7,30.2,20.0,30.2,19.9,13.0,84,66,50,30.42,30.10,0,0,0,0.00
2013-11-26,37.4,34.4,32.8,33.3,30.6,29.5,90,86,83,30.16,29.85,0,0,0,0.05
2013-11-27,36.7,31.4,23.9,31.1,26.6,17.6,92,83,71,29.99,29.71,0,0,0,0.01
2013-11-28,34.4,26.1,20.5,22.5,18.6,14.0,82,73,58,30.45,29.99,0,0,0,0.00
2013-11-29,31.3,23.6,15.5,21.2,16.3,9.6,89,74,53,30.74,30.44,0,0,0,0.01
2013-11-30,39.1,26.8,14.0,27.5,19.0,8.5,81,73,62,30.71,30.19,0,0,0,0.00
2013-12-1,45.0,38.1,33.3,35.5,31.5,26.8,82,77,68,30.19,29.97,0,0,0,0.07
2013-12-2,41.4,36.3,28.8,36.3,31.9,25.0,88,84,81,29.97,29.90,0,0,0,0.00
2013-12-3,41.0,32.4,23.9,32.6,27.0,20.9,90,81,60,30.03,29.94,0,0,0,0.00
2013-12-4,49.3,40.7,34.4,43.2,36.2,29.9,90,84,74,30.04,29.86,0,0,0,0.03
2013-12-5,60.7,50.6,39.2,54.0,43.8,32.9,86,78,61,30.09,29.75,0,0,0,0.00
2013-12-6,39.1,34.8,31.3,32.9,27.5,23.1,86,74,67,30.29,30.06,0,0,0,0.02
2013-12-7,32.4,28.4,23.2,23.7,19.4,14.0,78,69,59,30.59,30.28,0,0,0,0.00
2013-12-8,30.1,25.2,18.5,22.7,16.7,11.7,83,70,60,30.59,30.18,0,0,0,0.00
2013-12-9,38.2,32.6,27.7,35.1,28.0,21.7,90,83,74,30.18,29.86,0,0,0,0.04
2013-12-10,29.2,24.8,21.8,22.3,15.4,10.4,81,67,53,30.09,29.93,0,0,0,0.00
2013-12-11,28.8,22.9,17.5,18.4,14.4,10.4,79,70,62,30.31,30.09,0,0,0,0.00
2013-12-12,22.3,18.1,13.1,15.9,9.6,5.5,78,69,56,30.35,30.09,0,0,0,0.00
2013-12-13,26.6,20.3,14.8,21.0,14.4,8.8,86,78,67,30.42,30.06,0,0,0,0.00
2013-12-14,20.3,16.4,13.5,17.8,12.5,8.2,90,84,73,30.43,29.75,0,0,0,0.00
2013-12-15,28.3,23.1,17.6,22.6,18.7,10.7,90,83,74,29.90,29.66,0,0,0,0.00
2013-12-16,32.0,16.9,7.6,20.5,9.3,0.7,81,72,59,30.18,29.89,0,0,0,0.02
2013-12-17,31.7,21.7,6.1,25.5,16.5,1.5,87,81,68,30.14,29.92,0,0,0,0.00
2013-12-18,35.3,29.7,24.7,26.3,23.2,20.6,85,77,67,30.08,29.94,0,0,0,0.00
2013-12-19,43.9,36.6,28.3,34.3,29.4,20.8,84,75,68,30.06,29.89,0,0,0,0.08
2013-12-20,43.0,38.5,35.1,39.9,35.6,31.2,91,89,84,30.02,29.80,0,0,0,0.69
2013-12-21,48.6,37.3,31.9,46.3,35.0,29.6,92,92,90,29.91,29.73,0,0,0,0.76
2013-12-22,38.2,33.7,31.7,35.7,31.5,29.3,92,92,90,29.99,29.64,0,0,0,0.54
2013-12-23,38.3,33.2,24.8,35.6,30.0,19.7,91,88,80,30.30,29.97,0,0,0,0.00
2013-12-24,27.4,21.4,14.0,23.1,17.1,9.1,89,83,78,30.51,30.23,0,0,0,0.00
2013-12-25,24.7,15.8,1.8,19.4,10.7,-2.3,86,80,72,30.53,30.19,0,0,0,0.00
2013-12-26,36.4,29.1,21.6,29.6,22.9,15.1,88,78,67,30.30,30.06,0,0,0,0.01
2013-12-27,38.2,29.9,21.2,30.2,24.3,14.3,88,80,64,30.30,30.08,0,0,0,0.03
2013-12-28,45.4,38.8,33.8,36.9,32.8,30.0,87,79,71,30.12,29.95,0,0,0,0.07
2013-12-29,47.0,40.1,28.1,35.5,32.0,20.8,85,73,57,29.95,29.65,0,0,0,0.00
2013-12-30,27.7,21.2,17.8,20.8,12.6,8.0,76,69,57,30.24,29.83,0,0,0,0.00
2013-12-31,25.9,19.5,14.0,20.3,11.9,5.6,85,72,62,30.26,29.97,0,0,0,0.00
2014-1-1,28.3,17.8,13.7,16.7,10.9,6.3,86,75,54,30.42,30.26,0,0,0,0.00
2014-1-2,15.5,11.4,6.5,11.9,8.0,2.7,87,86,83,30.32,30.03,0,0,0,0.00